Location: Sternwarte ZA, Rosenfeld-Brittheim
(48.2889°N, 8.6789°E)
Time: 06:23:09
(UTC+02:00)

ISS - Pass Details

Date: 18 September 2020
Orbit: 419 x 420 km, 51.6° (Epoch: 21 September)

Event Time Altitude Azimuth Distance (km) Brightness Sun altitude
Rises 20:01:20 0° 196° (SSW) 2,353 0.1 -5.9°
Reaches altitude 10° 20:04:06 10° 171° (S) 1,494 -1.1 -6.3°
Maximum altitude 20:06:02 15° 136° (SE) 1,252 -1.8 -6.7°
Drops below altitude 10° 20:07:57 10° 101° (E) 1,500 -1.7 -7.0°
Enters shadow 20:08:11 - 98° (E) 1,556 -1.6 -7.0°
